Powrót do katalogu

DELTA 1 DEB

AktywnyPO
NORAD 21329·DEBRIS·🇺🇸 United States

Wystrzelony Jun 12, 1975 z Vandenberg Space Force Base

Loading…

Następne Przeloty (najbliższe 24 godziny)

TLE

ŚwieżeSource: Space-Track

Epoka: Sep 14, 2026, 10:10 UTC

1 21329U 75052AX  26257.42363606  .00011616  00000-0  22802-2 0  9999
2 21329  99.6709 322.6128 0103422 102.6789 322.0911 14.59499468781595

Śledź DELTA 1 DEB w czasie rzeczywistym z AllMySat

Download on the App Store